Location: Buenos Aires
(34.6076°S, 58.4371°W)
Time: 12:24:11
(UTC-03:00)

ISS - Visible Passes

Search period start: 30 November 2021 00:00
Search period end: 10 December 2021 00:00
Orbit: 417 x 423 km, 51.6° (Epoch: 30 November)

Date Brightness Start Highest point End Pass type
(mag) Time Alt. Az. Time Alt. Az. Time Alt. Az.
30 Nov -0.5 02:11:20 11° ESE 02:11:20 11° ESE 02:11:32 10° ESE visible
30 Nov -1.6 03:44:18 17° SW 03:45:15 19° SSW 03:47:49 10° SSE visible
01 Dec -1.8 02:58:44 26° S 02:58:44 26° S 03:01:00 10° SSE visible
02 Dec -0.8 02:13:06 17° SSE 02:13:06 17° SSE 02:14:01 10° SE visible
03 Dec -1.0 03:00:22 13° SW 03:00:43 13° SSW 03:02:26 10° S visible
04 Dec -0.8 02:14:36 16° S 02:14:36 16° S 02:15:51 10° SSE visible
05 Dec -0.2 01:28:48 11° SSE 01:28:48 11° SSE 01:29:00 10° SSE visible
07 Dec -0.3 01:29:53 11° S 01:29:53 11° S 01:30:19 10° S visible
09 Dec -0.3 04:47:10 10° S 04:48:21 11° SSE 04:49:33 10° SE visible
